New Delhi, India

11:39 AM IST on April 30, 2017 (GMT +0530)
Indira Gandhi International

Weather History for VIDP - April, 2013

Change the Weather History Date:

Wednesday, April 17, 2013

  Actual Average Record
Temperature  
Mean Temperature 84 °F -  
Max Temperature 98 °F 99 °F 111 °F (2007)
Min Temperature 69 °F 76 °F 60 °F (1997)
Cooling Degree Days 18    
Growing Degree Days 34 (Base 50)    
Moisture  
Dew Point 43 °F    
Average Humidity 26    
Maximum Humidity 56    
Minimum Humidity 11    
Precipitation  
Precipitation 0.00 in - - ()
Sea Level Pressure  
Sea Level Pressure 29.62 in    
Wind  
Wind Speed 7 mph ()    
Max Wind Speed 14 mph    
Max Gust Speed -    
Visibility 1.9 miles    
Events      
Averages and records for this station are not official NWS values.
T = Trace of Precipitation, MM = Missing Value Source: Averaged Metar Reports

Daily Weather History Graph

Daily Weather History Graph

Search for Another Location

Airport or City:

Trip Planner

Search our weather history database for the weather conditions in past years. The results will help you decide how hot, cold, wet, or windy it might be!

Date:

Astronomy

Apr. 17, 2013 Rise Set
Actual Time 5:54 AM IST 6:48 PM IST
Civil Twilight 5:29 AM IST 7:12 PM IST
Nautical Twilight 5:01 AM IST 7:41 PM IST
Astronomical Twilight 4:32 AM IST 8:10 PM IST
Moon 10:52 AM IST (4/17) No Moon Set
Length of Visible Light 13h 42m
Length of Day
12h 54m
Waxing Crescent, 38% of the Moon is Illuminated
Apr 17
Waxing Crescent
Apr 18
First Quarter
Apr 26
Full
May 2
Last Quarter
May 10
New

Hourly Weather History & Observations

Time (IST) Temp. Dew Point Humidity Pressure Visibility Wind Dir Wind Speed Gust Speed Precip Events Conditions
12:00 AM 84.2 °F 44.6 °F 25% 29.62 in 1.6 mi NW 10.4 mph - N/A   Haze
12:30 AM 84.2 °F 46.4 °F 27% 29.62 in 1.6 mi NNW 9.2 mph - N/A   Haze
1:00 AM 82.4 °F 50.0 °F 32% 29.62 in 1.7 mi NNW 9.2 mph - N/A   Haze
1:30 AM 82.4 °F 50.0 °F 32% 29.59 in 1.7 mi NW 9.2 mph - N/A   Haze
2:00 AM 80.6 °F 50.0 °F 34% 29.59 in 1.7 mi NW 5.8 mph - N/A   Haze
3:00 AM 77.0 °F 53.6 °F 44% 29.59 in 1.6 mi West 5.8 mph - N/A   Haze
3:30 AM 73.4 °F 53.6 °F 50% 29.59 in 1.7 mi WSW 5.8 mph - N/A   Haze
5:00 AM 71.6 °F 51.8 °F 50% 29.59 in 1.6 mi WSW 5.8 mph - N/A   Haze
5:30 AM 69.8 °F 53.6 °F 56% 29.59 in 1.6 mi WSW 5.8 mph - N/A   Haze
6:00 AM 69.8 °F 53.6 °F 56% 29.59 in 1.6 mi WSW 4.6 mph - N/A   Haze
6:30 AM 69.8 °F 53.6 °F 56% 29.62 in 1.4 mi WNW 8.1 mph - N/A   Haze
7:00 AM 69.8 °F 53.6 °F 56% 29.62 in 1.4 mi West 6.9 mph - N/A   Haze
7:30 AM 71.6 °F 53.6 °F 53% 29.62 in 1.1 mi West 6.9 mph - N/A   Haze
8:00 AM 73.4 °F 53.6 °F 50% 29.62 in 1.1 mi West 8.1 mph - N/A   Haze
9:00 AM 80.6 °F 48.2 °F 32% 29.65 in 1.5 mi NW 5.8 mph - N/A   Haze
9:30 AM 84.2 °F 46.4 °F 27% 29.65 in 1.6 mi WNW 6.9 mph - N/A   Haze
10:00 AM 86.0 °F 46.4 °F 25% 29.65 in 1.7 mi NW 8.1 mph - N/A   Haze
10:30 AM 89.6 °F 42.8 °F 20% 29.68 in 1.9 mi West 8.1 mph - N/A   Haze
11:00 AM 89.6 °F 42.8 °F 20% 29.68 in 1.9 mi West 8.1 mph - N/A   Haze
11:30 AM 89.6 °F 42.8 °F 20% 29.68 in 1.9 mi WNW 8.1 mph - N/A   Haze
12:00 PM 91.4 °F 42.8 °F 18% 29.65 in 1.9 mi WNW 10.4 mph - N/A   Haze
12:30 PM 93.2 °F 41.0 °F 16% 29.65 in 1.9 mi WNW 9.2 mph - N/A   Haze
1:00 PM 95.0 °F 41.0 °F 15% 29.65 in 2.2 mi NW 9.2 mph - N/A   Haze
1:30 PM 95.0 °F 41.0 °F 15% 29.62 in 2.2 mi NW 9.2 mph - N/A   Haze
2:00 PM 98.6 °F 35.6 °F 11% 29.62 in 1.9 mi WNW 11.5 mph - N/A   Haze
2:30 PM 96.8 °F 35.6 °F 12% 29.59 in 1.9 mi WNW 11.5 mph - N/A   Haze
3:00 PM 96.8 °F 35.6 °F 12% 29.59 in 1.9 mi WNW 13.8 mph - N/A   Haze
3:30 PM 98.6 °F 35.6 °F 11% 29.59 in 2.2 mi WNW 13.8 mph - N/A   Haze
4:00 PM 98.6 °F 35.6 °F 11% 29.59 in 2.5 mi WNW 13.8 mph - N/A   Haze
4:30 PM 96.8 °F 35.6 °F 12% 29.56 in 2.5 mi WNW 12.7 mph - N/A   Haze
5:00 PM 96.8 °F 35.6 °F 12% 29.56 in 2.8 mi NW 10.4 mph - N/A   Haze
6:00 PM 96.8 °F 35.6 °F 12% 29.59 in 3.1 mi WNW 9.2 mph - N/A   Haze
6:30 PM 96.8 °F 35.6 °F 12% 29.59 in 3.1 mi WNW 9.2 mph - N/A   Haze
7:00 PM 93.2 °F 35.6 °F 13% 29.59 in 3.1 mi WNW 9.2 mph - N/A   Haze
7:30 PM 91.4 °F 37.4 °F 15% 29.59 in 2.5 mi NW 6.9 mph - N/A   Haze
8:00 PM 91.4 °F 37.4 °F 15% 29.62 in 2.2 mi NW 6.9 mph - N/A   Haze
8:30 PM 89.6 °F 37.4 °F 16% 29.62 in - NNW 4.6 mph - N/A   Haze
9:00 PM 89.6 °F 37.4 °F 16% 29.62 in - NW 5.8 mph - N/A   Haze
10:00 PM 86.0 °F 39.2 °F 19% 29.65 in 1.5 mi North 4.6 mph - N/A   Haze
10:30 PM 86.0 °F 39.2 °F 19% 29.65 in 1.5 mi Calm Calm - N/A   Haze
11:00 PM 84.2 °F 39.2 °F 20% 29.65 in 1.4 mi Calm Calm - N/A   Haze
11:30 PM 84.2 °F 39.2 °F 20% 29.65 in 1.4 mi Calm Calm - N/A   Haze